(index) -> (Longitude,Latitude,Altitude,Time,Station(Text),North,East,Vertical,Nstddev,Estddev,Vstddev)
Longitude[unit="degrees east"],Latitude[unit="deg"],Altitude[unit="meter"],Time[fmt="yyyy-MM-dd"],Station(Text),North[unit="mm"],East[unit="mm"],Vertical[unit="mm"],Nstddev[unit="mm"],Estddev[unit="mm"],Vstddev[unit="mm"],skip
Longitude=-115.8171979278
Latitude=40.9146904918
Altitude=2016.89028
Station=ELKO_BRGN_NV1997
2004-01-07,1.05,7.76,3.28,1.58,1.51,6.02,final,
2004-01-08,-0.08,8.04,2.01,1.3,1.19,4.69,final,
2004-01-09,-0.14,8.33,3.03,1.28,1.16,4.58,final,
2004-01-11,-0.86,8.93,2.22,1.26,1.14,4.54,final,
2004-01-12,-0.43,7.78,-0.81,1.29,1.12,4.65,final,
2004-01-13,-0.53,8.31,1.59,1.3,1.18,4.7,final,
2004-01-14,-0.24,8.03,-0.9,1.32,1.15,4.68,final,
2004-01-15,-0.65,8.18,1.28,1.32,1.19,4.82,final,
2004-01-16,0.51,8.48,-0.48,1.37,1.22,5.01,final,
2004-01-17,-0.37,8.49,0.56,1.28,1.13,4.59,final,
2004-01-18,-0.57,9.22,0.61,1.32,1.19,4.83,final,
2004-01-19,-0.45,8.82,0.79,1.27,1.12,4.67,final,
2004-01-20,-0.6,8.89,1.19,1.3,1.14,4.63,final,
2004-01-21,-0.86,8.45,0.46,1.28,1.18,4.71,final,
2004-01-22,-0.26,8.23,-0.37,1.29,1.11,4.78,final,
2004-01-23,-0.35,8.39,-0.01,1.25,1.12,4.67,final,
2004-01-24,0.19,8.94,-2,1.37,1.26,5.11,final,
2004-01-25,-1.33,9.34,0.02,1.39,1.28,5.22,final,
2004-01-26,-0.68,7.91,0.06,1.28,1.13,4.75,final,
2004-01-27,-0.36,8.34,-1.5,1.28,1.13,4.77,final,
2004-01-28,0.64,7.91,-0.98,1.32,1.16,4.89,final,
2004-01-29,1.22,6.29,-6.03,3.52,2.64,12.84,final,
2004-01-30,-0.5,7.28,-1.51,1.89,1.78,7.9,final,
2004-01-31,-0.1,7.89,-1.75,1.32,1.2,4.92,final,
2004-02-01,0.02,8.83,-0.69,1.28,1.17,4.78,final,
2004-02-02,-0.23,7.69,-1.47,1.27,1.11,4.74,final,
2004-02-03,0.3,7.92,2.1,1.26,1.18,4.79,final,
2004-02-04,-0.13,7.69,-1.06,1.27,1.14,4.76,final,
2004-02-05,-0.05,8.25,-7.11,1.34,1.18,5.07,final,
2004-02-06,-1.24,6.75,-2.77,1.99,1.91,7.81,final,
2004-02-07,-0.41,7.22,-5.19,1.4,1.3,5.25,final,
2004-02-08,-0.03,6.32,-1.8,1.34,1.21,4.91,final,
2004-02-09,-0.38,7.44,-2.91,1.26,1.12,4.69,final,
2004-02-10,-0.22,9.13,-1.35,5.45,5.62,16.56,final,
2004-02-11,-0.77,7.95,-1.74,1.3,1.17,4.82,final,
2004-02-12,-0.32,6.69,-2.39,1.29,1.26,4.93,final,
2004-02-13,-0.4,7.29,-2.88,1.28,1.18,4.83,final,
2004-02-14,-1.9,8.15,-1.14,1.33,1.31,5,final,
2004-02-15,-0.27,7.28,-2.76,1.29,1.23,4.95,final,
2004-02-16,-0.49,8.33,-0.73,1.31,1.19,4.94,final,
2004-02-17,-0.73,8.86,-1.82,1.35,1.25,5.09,final,
2004-02-18,-0.14,8.29,0.03,1.45,1.34,5.47,final,
2004-02-19,0.74,6.22,-1.98,1.35,1.23,5.1,final,
2004-02-20,-0.23,8.21,0.18,1.28,1.18,4.8,final,
2004-02-21,0.1,7.56,-3.06,1.76,1.62,6.73,final,
2004-02-22,-0.5,7.34,-1.8,1.57,1.44,5.99,final,
2004-02-23,-0.43,6.71,1.41,1.63,1.61,6.04,final,
2004-02-24,-0.43,6.45,-2.82,1.73,1.61,6.47,final,
2004-02-25,-0.37,5.78,-2.08,1.87,1.72,7.17,final,
2004-02-26,-1.1,5.22,-1.33,1.82,1.68,6.86,final,
2004-02-27,-0.51,8.64,-1.09,1.65,1.61,6.13,final,
2004-02-28,0.02,5.84,-4.33,1.78,1.7,6.76,final,
2004-02-29,-0.42,6.48,3.08,1.8,1.66,6.78,final,
2004-03-09,-0.8,6.33,0.56,1.71,1.64,6.48,final,
2004-03-10,-0.22,5.99,-6.93,1.93,1.75,7.49,final,
2004-03-11,0.07,8.02,0.14,1.75,1.72,6.58,final,
2004-03-12,-0.36,8.36,2.95,1.75,1.62,6.58,final,
2004-03-13,0.35,6.88,-0.85,1.79,1.63,6.86,final,
2004-03-14,0.25,7.51,-3.71,1.72,1.59,6.48,final,
2004-03-15,0.26,7.97,-5.55,1.88,1.7,7.17,final,
2004-03-16,-0.13,4.46,-7.74,1.83,1.64,7.03,final,
2004-03-17,0.9,6.32,0.48,1.88,1.64,7.16,final,
2004-03-18,0.27,9.55,1.46,1.83,1.65,7.05,final,
2004-03-19,0.33,7.81,2.12,1.95,1.83,7.67,final,
2004-03-20,0.33,7.66,-3.29,1.83,1.73,7.15,final,
2004-03-21,0.58,6.96,-0.01,1.9,1.75,7.25,final,
2004-03-22,1.25,10.6,2.47,1.86,1.68,7.15,final,
2004-03-23,-0.66,9.17,2.52,1.93,1.75,7.52,final,
2004-03-24,0.37,7.63,-1.75,1.82,1.66,7.08,final,
2004-03-25,-0.03,6.87,3.99,1.85,1.65,7.19,final,
2004-03-26,1.55,7.01,3.67,1.95,1.75,7.64,final,
2004-03-27,-0.36,8.34,-1.77,1.89,1.69,7.43,final,
2004-03-28,-0.44,5.8,-4.12,1.9,1.67,7.42,final,
2004-03-29,-0.34,7.01,-3.74,1.76,1.53,6.76,final,
2004-03-30,-0.11,6.84,-4.48,1.75,1.56,6.78,final,
2004-03-31,-0.17,7.36,-1.97,1.77,1.57,6.77,final,
2004-04-01,-0.1,6.6,0.37,1.73,1.54,6.66,final,
2004-04-02,0.1,3.32,-1.79,1.75,1.59,6.72,final,
2004-04-03,-0.85,7.65,-0.65,1.87,1.76,7.3,final,
2004-04-04,-1.55,6.52,-0.67,1.87,1.76,7.18,final,
2004-04-05,-1.13,8.51,-0.44,1.47,1.54,5.61,final,
2004-04-06,-0.39,6.13,0.69,2,1.69,7.39,final,
2004-04-07,-0.35,5.59,-2.51,1.8,1.59,6.82,final,
2004-04-08,0.8,4.55,2.52,1.98,1.78,7.34,final,
2004-04-09,-0.85,7.52,-0.98,1.95,1.74,7.59,final,
2004-04-10,1.01,10.13,-8.77,1.94,1.68,7.3,final,
2004-04-11,-0.94,7.69,-0.23,1.5,1.41,5.58,final,
2004-04-12,-1.03,6.14,-4.02,1.39,1.19,5.04,final,
2004-04-13,-1.24,7.7,3.75,1.44,1.36,5.44,final,
2004-04-14,-0.55,9.82,-0.98,1.75,1.55,6.65,final,
2004-04-15,-1.49,3.21,4.13,1.7,1.54,6.68,final,
2004-04-16,-0.15,4.96,4.27,1.43,1.28,5.21,final,
2004-04-17,-2.68,4.15,2.98,1.75,1.61,6.59,final,
2004-04-18,-0.2,6.64,1.5,1.66,1.43,6.24,final,
2004-04-19,-0.57,6.85,-3.2,1.41,1.32,5.25,final,
2004-04-20,-1.41,6.37,1.36,1.68,1.48,6.45,final,
2004-04-21,-0.1,8.2,0.33,1.4,1.36,5.2,final,
2004-04-22,0.98,6.08,-4.25,1.42,1.29,5.22,final,
2004-04-23,-0.03,8.37,-5.53,1.38,1.33,5.15,final,
2004-04-24,-0.08,7.69,-4.3,1.45,1.5,5.31,final,
2004-04-25,0.48,6.47,-1.99,1.44,1.4,5.27,final,
2004-04-26,-0.68,7.13,-0.35,1.41,1.32,5.24,final,
2004-04-27,-1.13,7.63,-4.5,1.41,1.35,5.21,final,
2004-04-28,0.85,9.46,-3.92,1.53,1.57,5.78,final,
2004-04-29,-0.39,8.98,-1.74,1.42,1.3,5.24,final,
2004-04-30,-0.66,5.68,-2.53,1.38,1.24,5.11,final,
2004-05-01,-0.73,6.6,-3.58,1.41,1.27,5.15,final,
2004-05-02,-0.84,7.54,-5.53,1.41,1.26,5.16,final,
2004-05-03,-1.31,5.58,-2.68,1.42,1.26,5.29,final,
2004-05-04,-1.32,7.21,-3.45,1.46,1.33,5.56,final,
2004-05-05,-0.06,7.42,-1.31,1.48,1.45,5.58,final,
2004-05-06,0.34,7.59,-1.63,1.43,1.29,5.4,final,
2004-05-07,-0.52,7.73,-3.21,1.43,1.33,5.39,final,
2004-05-08,-0.13,9.08,0.1,1.45,1.28,5.37,final,
2004-05-09,0.12,6.26,-3.07,1.42,1.24,5.26,final,
2004-05-10,-0.21,8.23,-1.98,1.41,1.34,5.25,final,
2004-05-11,0.14,7.08,-5.63,1.44,1.26,5.28,final,
2004-05-12,0.19,5.85,-3.88,1.35,1.24,4.94,final,
2004-05-13,-0.82,4.86,-1.46,1.44,1.27,5.34,final,
2004-05-14,-0.48,6.62,-3.17,1.33,1.21,4.94,final,
2004-05-15,-0.05,5.07,-0.35,1.39,1.28,5.17,final,
2004-05-16,0.74,5.56,-1.4,1.45,1.33,5.38,final,
2004-05-17,0.18,6.91,-1.96,1.42,1.4,5.38,final,
2004-05-18,-0.38,9.12,-5.51,1.45,1.32,5.34,final,
2004-05-19,-0.18,6.34,0.62,1.42,1.36,5.12,final,
2004-05-20,-0.65,9.1,0.78,1.52,1.47,5.6,final,
2004-05-21,-0.22,6.47,0.87,1.46,1.32,5.37,final,
2004-05-22,1.06,9.42,-4.16,1.5,1.41,5.63,final,
2004-05-23,0.09,8.03,-0.27,1.44,1.33,5.37,final,
2004-05-24,0.44,7.75,1.27,1.39,1.29,5.05,final,
2004-05-25,-0.38,7.25,1.71,1.48,1.34,5.53,final,
2004-05-26,0,7.28,3.59,1.44,1.32,5.23,final,
2004-05-27,-0.3,6.62,3.05,1.64,1.57,6.07,final,
2004-05-28,-0.09,7.06,-3.36,1.52,1.43,5.68,final,
2004-05-29,2.1,6.15,-7.03,1.49,1.33,5.55,final,
2004-05-30,-0.54,6.37,-1.8,1.4,1.26,5.17,final,
2004-05-31,-1.1,9.04,-4.55,1.43,1.3,5.42,final,
2004-06-01,0.05,6.89,-1.29,1.42,1.28,5.24,final,
2004-06-02,0.17,7.67,-2.49,1.42,1.29,5.34,final,
2004-06-03,-0.16,7.45,-1.66,1.45,1.34,5.42,final,
2004-06-04,-0.17,7.64,-0.03,1.46,1.38,5.59,final,
2004-06-05,0.06,8.82,-0.24,1.44,1.38,5.29,final,
2004-06-06,0.09,7.23,2.3,1.54,1.45,5.75,final,
2004-06-07,1.67,6.44,-6.19,1.38,1.26,5.12,final,
2004-06-08,0.58,6.31,1.41,1.46,1.39,5.51,final,
2004-06-09,0.02,7.55,-0.81,1.43,1.27,5.33,final,
2004-06-10,-0.07,6.53,0.52,1.45,1.35,5.51,final,
2004-06-11,0.09,6.79,1.68,1.43,1.25,5.18,final,
2004-06-12,-0.04,6.55,-0.71,1.41,1.32,5.27,final,
2004-06-13,0.95,7.39,-6.54,1.92,1.87,7.63,final,
2004-06-14,0.57,6.78,-2.59,1.51,1.45,5.71,final,
2004-06-15,0.69,6.6,2.05,1.4,1.3,5.19,final,
2004-06-16,0.91,8.02,-6.85,1.44,1.35,5.35,final,
2004-06-17,0.36,8.21,-2.72,1.45,1.38,5.46,final,
2004-06-18,0.97,9.5,-1.59,1.92,1.88,7.54,final,
2004-06-19,1.52,7.63,-1.24,2.01,1.87,7.9,final,
2004-06-20,-0.52,5.49,2.9,2.14,2.03,8.12,final,
2004-06-21,0.94,6.32,-5.56,1.51,1.43,5.74,final,
2004-06-22,-0.68,7.72,-1.98,1.73,1.65,6.74,final,
2004-06-23,0.52,6,-0.89,1.83,1.72,7.1,final,
2004-06-24,-0.4,6.38,-3.51,1.43,1.39,5.36,final,
2004-06-25,-0.73,6.41,1.15,1.65,1.6,6.24,final,
2004-06-26,-0.74,4.97,2.91,2.32,2.18,8.64,final,
2004-06-27,-1.26,6.42,-1.25,1.42,1.31,5.31,final,
2004-06-28,-0.2,7.34,3.35,1.52,1.43,5.75,final,
2004-06-29,-0.28,7.23,-0.86,1.49,1.34,5.55,final,
2004-06-30,-0.39,7.59,-0.21,1.45,1.36,5.53,final,
2004-07-01,0.34,7.12,-4.31,1.42,1.31,5.35,final,
2004-07-02,-0.23,6.7,-0.58,1.43,1.29,5.37,final,
2004-07-03,-0.47,6.53,0.41,1.44,1.3,5.38,final,
2004-07-04,-0.33,6.75,-4.7,1.59,1.45,5.98,final,
2004-07-05,-0.07,9.43,0.93,1.92,1.79,7.41,final,
2004-07-06,-0.3,6.48,-2.69,1.43,1.29,5.37,final,
2004-07-07,0.14,6.84,-0.74,1.55,1.44,5.82,final,
2004-07-08,0.16,4.71,1.98,1.52,1.43,5.67,final,
2004-07-09,-1.68,7.29,7.52,1.56,1.42,5.9,final,
2004-07-10,-0.89,6.31,0.86,1.53,1.43,5.69,final,
2004-07-11,0.47,6.33,-2.49,1.4,1.32,5.2,final,
2004-07-12,1.66,5.22,-4.3,1.81,1.64,7.04,final,
2004-07-13,-0.49,7.37,-0.66,1.47,1.32,5.46,final,
2004-07-14,0.43,7.2,-4.05,1.65,1.6,6.16,final,
2004-07-15,0.2,8.57,-5.9,2.05,1.88,8.1,final,
2004-07-16,0.15,7.79,-8.3,1.61,1.54,6.1,final,
2004-07-17,-0.51,4.94,-4.14,1.57,1.6,6.14,final,
2004-07-18,-0.12,5.6,-1.81,1.53,1.45,5.66,final,
2004-07-19,-0.09,7.41,1.16,1.7,1.57,6.39,final,
2004-07-20,0.38,6.68,-0.19,2.24,2.11,9.36,final,
2004-07-21,-1.81,6.22,-9.16,1.71,1.74,6.45,final,
2004-07-22,0.24,8.07,-5.08,1.62,1.7,6.05,final,
2004-07-23,0.69,5.3,-1.14,1.75,1.67,6.57,final,
2004-07-24,0.14,7.64,-3.66,1.49,1.43,5.57,final,
2004-07-25,-2.44,5.6,-3.58,2.05,1.86,8.14,final,
2004-07-26,-3.06,8.03,-4.16,1.63,1.5,6.04,final,
2004-07-27,-0.83,7.69,6.08,2.46,2.27,9.72,final,
2004-07-28,-1.33,6.86,0.03,1.46,1.35,5.38,final,
2004-07-29,-0.1,7.64,0.03,2.23,1.99,8.55,final,
2004-07-30,-0.9,5.87,-2.21,1.5,1.33,5.5,final,
2004-07-31,-0.86,6.35,-2.56,1.43,1.28,5.38,final,
2004-08-01,0.01,5.77,1.57,1.56,1.42,5.81,final,
2004-08-02,-0.52,5.51,-5.19,1.74,1.54,6.51,final,
2004-08-03,-0.24,5.29,-0.91,1.46,1.3,5.36,final,
2004-08-04,-1.15,6.78,-0.62,1.47,1.37,5.46,final,
2004-08-05,-1.04,6.97,-2.2,1.47,1.39,5.49,final,
2004-08-06,-0.74,5.91,-1.63,1.43,1.33,5.37,final,
2004-08-07,-0.03,6.01,-4.47,1.49,1.42,5.61,final,
2004-08-08,-0.4,7.04,-5.37,1.47,1.4,5.3,final,
2004-08-09,-0.61,6.71,-2.18,1.11,1.02,4.17,final,
2004-08-10,-1.51,5.7,-2.46,1.17,1.15,4.34,final,
2004-08-11,-0.04,5.58,-3.84,1.48,1.42,5.46,final,
2004-08-12,-0.65,7.34,-7.44,1.55,1.5,5.75,final,
2004-08-13,-1.06,7.73,3.42,1.52,1.45,5.53,final,
2004-08-15,-0.18,6.51,-7.39,4.84,5.36,18.06,final,
2004-08-17,0,8.71,-1.22,1.61,1.55,5.91,final,
2004-08-18,-1.01,4.54,-8.58,1.69,1.7,6.32,final,
2004-08-19,1.34,10.31,-1.95,1.73,1.89,6.41,final,
2004-08-20,-0.1,7.75,-3.97,1.31,1.39,4.97,final,
2004-08-21,0.91,5.89,-2.05,1.6,1.59,5.97,final,
2004-08-22,-1.08,7.21,1,1.57,1.6,5.69,final,
2004-08-23,0.63,6.08,0.07,1.59,1.64,5.82,final,
2004-08-24,0.49,6.68,-3.13,1.52,1.54,5.69,final,
2004-08-25,-0.45,8.73,-0.08,1.64,2.02,5.88,final,
2004-08-26,0.4,7.11,-4.25,1.62,1.67,6,final,
2004-08-27,-1.13,5.68,-5.16,1.45,1.45,5.21,final,
2004-08-28,-0.77,7.55,-6.65,1.43,1.44,5.31,final,
2004-08-29,-1.06,6.43,-4.71,1.47,1.53,5.52,final,
2004-08-30,-0.06,5.23,-0.17,1.51,1.62,5.55,final,
2004-08-31,-0.44,6.8,-3.97,1.46,1.64,5.3,final,
2004-09-01,-0.3,5.6,-0.47,1.44,1.36,5.31,final,
2004-09-02,-0.91,8.14,-0.65,1.62,1.75,6.05,final,
2004-09-03,0.83,5.43,-5.24,1.48,1.52,5.42,final,
2004-09-04,-0.16,6.46,-2.86,1.41,1.38,5.15,final,
2004-09-05,0.56,6.7,-1.34,1.47,1.49,5.54,final,
2004-09-06,-1.02,6.8,-2.02,1.44,1.39,5.17,final,
2004-09-07,-0.73,3.87,-0.77,1.47,1.53,5.43,final,
2004-09-08,-0.39,5.49,-1.54,1.37,1.32,4.98,final,
2004-09-09,-0.62,7.17,-1.04,1.45,1.44,5.38,final,
2004-09-10,-0.01,5,-2.62,1.44,1.46,5.24,final,
2004-09-11,-0.27,6.58,-0.36,1.46,1.48,5.48,final,
2004-09-12,-0.19,6.23,3.91,1.55,1.52,5.87,final,
2004-09-13,-0.47,2.86,-2.55,1.53,1.42,5.53,final,
2004-09-14,0.13,4.29,-9.24,1.56,1.5,5.82,final,
2004-09-15,-0.37,5.76,-1.21,1.44,1.4,5.18,final,
2004-09-16,0.89,4.7,-1,1.49,1.43,5.56,final,
2004-09-17,0.19,6.05,0.64,1.54,1.58,5.67,final,
2004-09-18,-0.22,7.62,0.88,1.58,1.61,5.91,final,
2004-09-19,-1.02,3.73,2.07,1.4,1.32,5.15,final,
2004-09-20,0.03,4.36,-1.57,1.43,1.4,5.24,final,
2004-09-21,-0.19,6.91,-4.28,1.43,1.41,5.21,final,
2004-09-22,-0.93,4.76,-0.9,1.4,1.43,4.99,final,
2004-09-23,-0.68,5.31,-5.83,1.36,1.33,5.03,final,
2004-09-24,-1.24,6.09,0.44,1.42,1.39,5.21,final,
2004-09-25,-0.2,4.65,-1.44,1.4,1.41,5.16,final,
2004-09-26,-0.16,4.55,0.01,1.4,1.38,5.16,final,
2004-09-27,-0.01,6.28,-0.99,1.48,1.46,5.39,final,
2004-09-28,-0.66,5.13,2.41,1.41,1.39,5.28,final,
2004-09-29,-0.64,7.18,2.4,1.49,1.5,5.44,final,
2004-09-30,-1.31,4.83,4.56,1.47,1.37,5.5,final,
2004-10-01,0.16,4.48,-0.27,1.5,1.48,5.58,final,
2004-10-02,-1.75,4.69,1.72,1.43,1.43,5.28,final,
2004-10-03,-0.4,4.97,-1.28,1.44,1.4,5.27,final,
2004-10-04,0.13,6.39,-3.16,1.51,1.55,5.44,final,
2004-10-05,-0.5,8.55,-0.13,1.44,1.44,5.26,final,
2004-10-06,-1.14,4.97,1.36,1.41,1.4,5.1,final,
2004-10-07,-0.35,3.91,0.36,1.44,1.37,5.17,final,
2004-10-08,-1.21,7.15,0.82,1.4,1.36,5.03,final,
2004-10-09,-0.01,5.56,0.16,1.46,1.45,5.26,final,
2004-10-10,-0.2,5.47,-0.15,1.48,1.43,5.28,final,
2004-10-11,0.2,5.21,-3.96,1.4,1.32,5.1,final,
2004-10-12,-0.95,4.6,2.79,1.42,1.36,5.09,final,
2004-10-13,0.14,6.21,-5.93,1.38,1.29,4.98,final,
2004-10-14,-0.33,5.09,-0.24,1.37,1.32,4.92,final,
2004-10-15,-0.42,4.08,-2.73,1.38,1.29,5.01,final,
2004-10-16,-0.06,5.15,2.29,1.4,1.38,5.04,final,
2004-10-17,0.15,5.95,2.24,1.51,1.44,5.51,final,
2004-10-18,-0.64,7.26,2.68,1.47,1.37,5.24,final,
2004-10-19,-0.51,7.88,-0.08,1.44,1.4,5.16,final,
2004-10-20,-0.98,6.4,3.76,1.44,1.45,5.23,final,
2004-10-21,-0.48,7.28,-0.61,1.38,1.36,5.07,final,
2004-10-22,-0.1,5.54,-0.7,1.36,1.33,4.98,final,
2004-10-23,-1.29,4.69,2.05,1.43,1.47,5.08,final,
2004-10-24,-0.62,5.83,-2.7,1.36,1.42,4.88,final,
2004-10-25,-0.55,6.64,1.89,1.35,1.24,4.83,final,
2004-10-26,-1.51,6.37,-2.18,1.44,1.31,5.19,final,
2004-10-27,0.6,5.3,0,1.42,1.35,5.16,final,
2004-10-28,-1.69,7.37,3.07,1.4,1.42,5.14,final,
2004-10-29,-1.12,4.99,-0.91,1.34,1.33,4.93,final,
2004-10-30,-1.54,6.05,-1.52,1.48,1.55,5.25,final,
2004-10-31,-1.52,7.86,-6.41,1.49,1.43,5.29,final,
2004-11-01,-1.11,7.25,-3.06,1.77,1.67,6.82,final,
2004-11-02,-0.67,6.56,-5.36,1.33,1.33,4.8,final,
2004-11-03,-0.51,6.76,-2.02,1.34,1.38,4.83,final,
2004-11-04,-0.99,5.58,4.08,1.38,1.25,5.02,final,
2004-11-05,-1.02,6.51,0.64,1.4,1.31,5.03,final,
2004-11-06,-0.51,5.74,-1.81,1.36,1.32,4.88,final,
2004-11-07,0.48,7.55,-0.13,1.45,1.39,5.31,final,
2004-11-08,-0.76,5.51,1.02,2.02,1.79,7.47,final,
2004-11-09,-1.37,5.81,0.52,1.38,1.25,4.97,final,
2004-11-10,-0.82,6.18,-5.13,1.42,1.33,5.11,final,
2004-11-11,-1.67,5.42,-2.73,1.34,1.22,4.9,final,
2004-11-12,-0.98,6.8,-1.59,1.35,1.25,4.84,final,
2004-11-13,-1.43,7.14,-4.03,1.38,1.31,5,final,
2004-11-14,-0.6,6.59,-1.05,1.69,1.47,6.26,final,
2004-11-15,-0.91,6.03,-0.65,1.3,1.18,4.73,final,
2004-11-18,1.23,3.39,-11.25,2.81,2.4,11.57,final,
2004-11-19,0.16,4.5,-5.3,1.22,1.12,4.33,final,
2004-11-20,-0.37,5.07,-2.67,1.11,0.99,3.87,final,
2004-11-21,-0.69,6.3,-0.59,1.11,0.99,3.88,final,
2004-11-22,-0.96,5.13,2.71,1.11,0.99,3.88,final,
2004-11-23,-0.06,4.97,-0.88,1.19,1.06,4.16,final,
2004-11-24,-1.18,4.44,-1.89,1.15,1.04,4.06,final,
2004-11-25,-0.63,4.58,-1.04,1.27,1.14,4.44,final,
2004-11-26,0,4.53,-5.12,1.18,1.11,4.21,final,
2004-11-27,-0.09,4.2,-2.84,1.13,1.14,3.92,final,
2004-11-28,-0.11,4.87,-4.56,1.2,1.07,4.14,final,
2004-11-29,-1.12,4.1,-3.9,1.03,0.92,3.58,final,
2004-11-30,-0.39,2.74,-2.98,1.38,1.29,4.69,final,
2004-12-01,-0.77,4.25,-3.5,1.07,0.98,3.67,final,
2004-12-02,-0.84,3.49,-1.73,1.05,0.92,3.6,final,
2004-12-03,-1.47,4.4,-0.84,1.03,0.91,3.55,final,
2004-12-04,-1.29,3.62,2.31,1.03,0.94,3.58,final,
2004-12-05,-0.31,5.11,1.26,1,0.89,3.48,final,
2004-12-06,-0.41,4.31,0.76,1.06,0.91,3.63,final,
2004-12-07,-1.48,3.94,1.23,1.1,0.96,3.78,final,
2004-12-08,-0.67,5.4,0.65,1.14,1.05,3.95,final,
2004-12-09,-0.5,5.39,0.4,1.25,1.13,4.35,final,
2004-12-10,-0.04,3.69,-3.09,1.14,1.01,3.94,final,
2004-12-11,-0.61,4.63,-0.85,1.14,0.99,3.94,final,
2004-12-12,-0.29,4.14,-0.31,1.14,0.99,3.85,final,
2004-12-13,-0.38,4.74,-0.93,1.13,1.01,3.89,final,
2004-12-14,0.63,4.98,-1.63,1.15,1,3.97,final,
2004-12-15,0.87,3.58,-6.25,1.18,1.02,4.04,final,
2004-12-16,-0.46,4.14,-4.22,1.12,0.97,3.85,final,
2004-12-17,-0.91,4.15,-4.04,1.15,1.02,4.06,final,
2004-12-18,-0.67,3.32,-5.21,1.08,0.96,3.79,final,
2004-12-19,-0.99,3.61,-2.74,1.08,0.94,3.7,final,
2004-12-20,0.37,3.49,-5.61,1.19,1.05,4.15,final,
2004-12-21,-0.42,4.46,-2.18,1.13,1,3.97,final,
2004-12-22,-0.1,4.35,-3.44,1.16,1.04,4.11,final,
2004-12-23,0.66,4.18,-3.84,1.1,0.96,3.84,final,
2004-12-24,-0.5,4.43,-1.3,1.08,0.95,3.77,final,
2004-12-25,-0.71,4.04,-0.19,1.07,0.94,3.75,final,
2004-12-26,-0.78,4.57,-0.44,1.1,0.95,3.8,final,
2004-12-27,-0.68,4.87,1.9,1.14,0.98,3.94,final,
2004-12-28,0.35,4.85,-0.15,1.21,1.02,4.14,final,
2004-12-29,0.15,4.43,1.32,1.25,1.08,4.27,final,
2004-12-30,-0.76,3.28,-0.04,1.15,0.99,3.9,final,
2004-12-31,-0.04,3.27,-0.67,1.17,0.98,3.97,final,
2005-01-01,0.06,5.15,-1.57,1.15,0.97,3.95,final,
2005-01-02,-0.93,4.17,1.51,1.09,0.93,3.75,final,
2005-01-03,-0.92,4.44,0.3,1.04,0.88,3.58,final,
2005-01-04,-0.72,4.15,1.93,1.1,0.93,3.79,final,
2005-01-05,-0.73,4.53,-0.61,1.16,0.98,3.99,final,
2005-01-06,-0.99,4.01,-1.17,0.87,0.74,3.09,final,
2005-01-07,-0.19,4.12,-0.65,0.89,0.75,3.14,final,
2005-01-08,-0.47,4.94,-0.07,1.22,1.06,4.27,final,
2005-01-09,-0.53,3.23,-3.33,1.2,1.03,4.2,final,
2005-01-10,0.44,3.59,-3.27,1.16,1,4.02,final,
2005-01-11,0.58,3.79,-4.74,1.22,1.08,4.25,final,
2005-01-12,0.46,1.46,-7.29,1.2,1.09,4.17,final,
2005-01-13,-0.39,3.46,-6.53,1.05,0.88,3.65,final,
2005-01-14,-0.74,4.43,-3.67,1.06,0.93,3.7,final,
2005-01-15,-0.13,3.62,-5.53,0.82,0.71,2.91,final,
2005-01-16,-0.68,3.88,-5.54,1.13,1.01,3.99,final,
2005-01-17,-0.83,4.78,-5.66,1.15,1.05,4.06,final,
2005-01-18,-1.31,3.96,-2.39,1.17,1.01,4.09,final,
2005-01-19,-0.23,3.44,-4.26,1.17,1,4.1,final,
2005-01-20,-0.85,3.69,-2.53,1.14,0.99,4.08,final,
2005-01-21,-0.66,3.74,-2.77,0.92,0.78,3.28,final,
2005-01-22,-0.24,4.03,-2.51,1.16,1.02,4.05,final,
2005-01-23,-0.61,3.2,-2.44,1.06,0.93,3.77,final,
2005-01-24,-0.38,3.96,-2.5,1.12,0.96,3.95,final,
2005-01-25,-0.69,3,0.15,1.07,0.93,3.76,final,
2005-01-26,-0.84,3.19,-0.63,1.09,0.94,3.87,final,
2005-01-27,-0.55,2.9,0.2,1.09,0.95,3.86,final,
2005-01-28,-1.42,3.05,1.33,1.14,0.98,3.99,final,
2005-01-29,-0.99,3.35,-2.5,1.07,0.92,3.68,final,
2005-01-30,-1.57,1.86,-2.21,1.07,0.93,3.77,final,
2005-01-31,-0.79,2.53,-2.56,1.06,0.93,3.78,final,
2005-02-01,-0.13,2.33,-1.92,1.15,1.02,4.08,final,
2005-02-02,-1.35,3.23,-1.4,1.07,0.93,3.84,final,
2005-02-03,-1.23,2.68,-2.23,1.1,0.93,3.78,final,
2005-02-04,-0.56,2.75,-1.6,1.09,0.95,3.79,final,
2005-02-05,0.18,2.6,-1.64,1.19,1.05,4.18,final,
2005-02-06,-0.17,3.57,-0.89,1.18,1.03,4.11,final,
2005-02-07,-0.63,3.39,-0.31,1.06,0.97,3.72,final,
2005-02-08,-1.05,3.34,-1.28,1.04,0.92,3.65,final,
2005-02-09,-1.03,3.39,-1.69,1.04,0.92,3.66,final,
2005-02-10,-1.08,3.23,-2.63,1.07,0.92,3.72,final,
2005-02-11,-0.91,3.14,-1.56,1.11,0.97,3.91,final,
2005-02-12,-0.64,1.57,-0.23,1.11,0.96,3.9,final,
2005-02-13,-0.96,3.42,-1.75,1.16,1.03,4.05,final,
2005-02-14,-0.63,2.78,-3.86,1.2,1.07,4.21,final,
2005-02-15,-0.24,2.53,-1.62,1.13,0.99,3.95,final,
2005-02-16,-0.63,3.01,-0.1,1.16,1.03,4.1,final,
2005-02-17,-0.8,3.3,-2.92,0.84,0.76,2.99,final,
2005-02-18,-0.24,3.57,-2.19,1.15,1.01,4.02,final,
2005-02-19,-0.76,3.41,0.98,1.16,1.03,4.08,final,
2005-02-20,-0.56,3.51,-0.47,1.08,0.97,3.83,final,
2005-02-21,-0.71,2.79,0.01,0.85,0.74,3.04,final,
2005-02-22,-0.77,2.67,-0.65,1.07,0.94,3.79,final,
2005-02-23,-0.16,2,-4.63,1.17,0.99,4.06,final,
2005-02-24,-0.34,2.75,-1.49,0.87,0.77,3.12,final,
2005-02-25,-1.07,2.24,1.37,1.2,1.1,4.19,final,
2005-02-26,-1.04,3.03,0.49,1.12,0.96,3.92,final,
2005-02-27,-0.4,2.49,-0.1,0.85,0.73,3.02,final,
2005-02-28,-1.06,2.3,0.72,1,0.86,3.65,final,
2005-03-01,-0.67,3.06,-2.37,0.88,0.75,3.1,final,
2005-03-02,-0.97,2.83,1.1,1.13,0.96,3.94,final,
2005-03-03,-0.56,2.84,1.69,1.14,0.98,3.93,final,
2005-03-04,-0.56,2.96,1.44,1.14,0.99,3.97,final,
2005-03-05,-0.26,2.88,2.08,1.17,1.01,4.13,final,
2005-03-06,-0.76,2.43,2.24,1.2,1.05,4.19,final,
2005-03-07,-1.06,3.13,1.5,1.22,1.06,4.23,final,
2005-03-08,0.51,1.68,-1.83,1.26,1.1,4.39,final,
2005-03-09,-1.19,3.18,1.04,1.22,1.04,4.22,final,
2005-03-10,-0.48,2.1,1.69,1.27,1.08,4.39,final,
2005-03-11,-1.37,1.61,-2.72,1.21,1.04,4.17,final,
2005-03-12,-0.14,3.51,3.72,1.27,1.11,4.41,final,
2005-03-13,0.45,3.99,-6.11,1.35,1.18,4.65,final,
2005-03-14,0.3,3.63,-2.78,1.23,1.06,4.2,final,
2005-03-15,-0.44,2.43,0.76,1.24,1.14,4.33,final,
2005-03-16,-0.05,3.33,1.76,1.26,1.18,4.38,final,
2005-03-17,-2.46,5.07,4.03,1.42,1.29,4.93,final,
2005-03-18,-0.3,3.53,1.39,0.95,0.81,3.31,final,
2005-03-19,-0.64,3.46,2.92,0.91,0.77,3.14,final,
2005-03-20,-0.56,4.05,-0.35,1.31,1.12,4.44,final,
2005-03-21,-0.01,2.23,-4.41,1.28,1.12,4.36,final,
2005-03-22,-0.35,3.34,-1.83,1.2,1.04,4.09,final,
2005-03-23,2.19,2.9,-1.65,1.21,1.07,4.14,final,
2005-03-24,-0.79,2.01,-0.76,1.18,1.03,4.05,final,
2005-03-25,-0.54,1.69,-0.95,0.91,0.78,3.15,final,
2005-03-26,-1.07,2.3,-2.03,1.21,1.08,4.17,final,
2005-03-27,-1.51,2.77,0.62,1.27,1.11,4.42,final,
2005-03-28,-1.01,3.69,2.53,1.01,0.88,3.58,final,
2005-03-29,-1.02,2.43,-0.83,1.27,1.13,4.45,final,
2005-03-30,-1.5,5.64,-3.18,1.32,1.14,4.6,final,
2005-03-31,-1.32,3.28,-6.19,1.22,1.05,4.18,final,
2005-04-01,-0.87,3.11,-2.62,0.93,0.81,3.25,final,
2005-04-02,-0.7,2.88,-4.32,1.25,1.09,4.34,final,
2005-04-03,-0.59,2.79,-1.58,1.25,1.09,4.35,final,
2005-04-04,-0.45,4.2,-3.08,1.34,1.17,4.68,final,
2005-04-05,-1.4,1.75,0.02,1.23,1.13,4.31,final,
2005-04-06,-0.56,2.55,-1.3,0.91,0.79,3.19,final,
2005-04-07,-1.48,2.04,-1.83,1.27,1.12,4.46,final,
2005-04-08,-0.35,2.65,-2.91,1.28,1.11,4.45,final,
2005-04-09,0.28,1.54,-3.38,0.98,0.85,3.45,final,
2005-04-10,-0.15,3.41,-2.72,1.24,1.1,4.32,final,
2005-04-11,-1.45,2.13,-0.8,1.29,1.22,4.56,final,
2005-04-12,-0.89,3.23,-0.98,1.29,1.15,4.47,final,
2005-04-13,-0.37,3.21,0.65,1.23,1.12,4.35,final,
2005-04-14,-0.48,2.05,-4.26,1.21,1.04,4.18,final,
2005-04-15,-0.65,2.65,-2.13,1.17,1,4.02,final,
2005-04-16,-1.02,2.29,-1.32,1.15,0.98,3.96,final,
2005-04-17,-0.66,3.53,-0.56,1.28,1.11,4.4,final,
2005-04-18,0.02,2.6,-4.73,1.24,1.08,4.27,final,
2005-04-19,-0.04,1.17,-4.66,1.18,1.06,4.11,final,
2005-04-20,-0.84,2.29,-2.46,0.87,0.76,3.01,final,
2005-04-21,-0.32,1.03,-3.81,1.17,1.01,3.97,final,
2005-04-22,-1.02,3.33,-2.87,1.27,1.13,4.32,final,
2005-04-23,-2.27,2.98,0.1,1.44,1.24,4.93,final,
2005-04-24,-1.86,0,-2.7,1.02,0.89,3.57,final,
2005-04-25,-0.21,2.87,-3.71,1.19,1.06,4.06,final,
2005-04-26,-0.58,2.94,-4.51,1.33,1.17,4.57,final,
2005-04-27,-0.57,3.93,-0.62,0.95,0.83,3.3,final,
2005-04-28,-0.75,2.72,-2.15,1.26,1.09,4.27,final,
2005-04-29,0.1,2.13,-7.66,1.38,1.25,4.72,final,
2005-04-30,-0.74,1.89,-7.86,1,0.88,3.45,final,
2005-05-01,0,1.44,-12.22,1.7,1.53,6.01,final,
2005-05-02,-0.9,3.64,-5.13,1.29,1.12,4.36,final,
2005-05-03,-0.25,2.7,-6.4,0.99,0.89,3.53,final,
2005-05-04,-0.06,3.25,-4.44,1.28,1.12,4.44,final,
2005-05-05,-1.55,3.34,-4.09,1.44,1.26,4.89,final,
2005-05-06,-0.36,3.06,-2.26,1.4,1.21,4.76,final,
2005-05-07,-0.5,2.26,-4.93,1.28,1.16,4.37,final,
2005-05-08,-0.82,2.29,-4.28,1.83,1.63,6.27,final,
2005-05-09,-0.58,2.26,-2.71,1.98,1.77,6.92,final,
2005-05-10,0.16,2.81,-6.79,1.38,1.21,4.78,final,
2005-05-11,-0.28,1.52,-1.5,1.27,1.07,4.31,final,
2005-05-12,-1.09,0.25,-3.15,1.29,1.18,4.39,final,
2005-05-13,0.07,2.69,-5.87,1.29,1.1,4.42,final,
2005-05-14,-1.27,2.89,-3.7,1.29,1.14,4.39,final,
2005-05-15,-0.56,2.62,-3.41,1.33,1.17,4.61,final,